Погода в Могзне

Россия / Забайкальский край     51°44′26″N   111°58′09″E
В апреле 2022 года жителям России запретили посещать сайт meteo.paraplan.net по решению Генеральной прокуратуры. Аудитория сайта уменьшилась в 10 раз. Владельцы сайта не видят смысла в поддержке погодного сервера в таких условиях. Сайт будет закрыт в октябре.
темп.,
°C
ветер,
м/с
пор.,
м/с
влажн.,
%
обл.,
%
осадки,
мм/ч
давл.,
гПа
погр.,
м
4 октября, вт
вт400:00−6зюз239114 0.0 103655
03:00−7зюз22945 0.0 103642
06:00−8юз22957 0.0 103636
09:00−6зюз2484100 0.0 1034217
12:00−1зсз3554100 0.0 10311479
15:000сз4551100 0.1 10291477
18:00−1сз3559100 0.2 10291140
21:00−5з22818 0.2 103111
5 октября, ср
ср500:00−6зюз22885 0.0 103213
03:00−7зюз22925 0.0 103217
06:00−8зюз22945 0.0 103315
09:00−6зюз24825 0.0 1032195
12:000зсз464499 0.0 10291516
15:00+2зсз5636100 0.0 10261994
18:00+1зсз464474 0.0 1026800
21:00−5з11682 0.0 102810
6 октября, чт
чт600:00−6юз11735 0.0 102711
03:00−7юз11805 0.0 102710
06:00−8юз11866 0.0 102610
09:00−6зюз11755 0.0 1026127
12:000з23440 0.0 1023783
15:00+4зюз24330 0.0 10191459
18:00+2зсз35404 0.0 1019169
21:00−4зюз1159100 0.0 102210
7 октября, пт
пт700:00−3ююз1161100 0.0 102314
03:00−4юз217075 0.0 102414
06:00−6юз228675 0.0 102515
09:00−4зюз138445 0.0 1025154
12:00+2сз345054 0.0 10221156
15:00+4ссз3543100 0.0 10211643
18:00+2ссз1149100 0.0 102212
21:00−3сз1164100 0.0 102510
8 октября, сб
сб800:00−4ссз1173100 0.0 102813
03:00−5зсз1182100 0.0 102915
06:00−6сз118644 0.0 103117
09:00−4зсз127983 0.0 1032139
12:00+2ссз354888 0.0 10301329
15:00+3сз4642100 0.0 10291695
18:00+2сз244721 0.0 102980
21:00−4зсз11725 0.0 103210